Location: Banff
(51.1667°N, 115.5667°W)
Time: 07:12:37
(UTC+00:00)

S-56A Canister/Altair - Pass Details

Date: 05 December 2020
Orbit: 633 x 2499 km, 38.9° (Epoch: 21 January)

Event Time Altitude Azimuth Distance (km) Brightness Sun altitude
Rises 02:21:49 0° 241° (WSW) 5,984 13.1 -24.8°
Reaches altitude 10° 02:26:19 10° 235° (SW) 4,795 12.3 -25.5°
Maximum altitude 02:37:48 40° 173° (S) 2,450 9.9 -27.3°
Enters shadow 02:41:03 32° 137° (SE) 2,512 9.7 -27.8°
Drops below altitude 10° 02:46:01 10° 108° (ESE) 3,439 - -28.6°
Sets 02:48:42 0° 101° (E) 4,176 - -29.0°
